CW3319 Weather Reports


Display with metric or nautical units.
time (UTC)temp
F
wind
direction
speed
MPH
gust
MPH
rain 1hr
in
rain 24hr
in
rain mn
in
humidity
%
barometer
mb
20260831025902 76 224 1.0 3.0 0.00 0.00 0.00 82 1006.2
20260831024932 77 205 1.0 3.0 0.00 0.00 0.00 81 1006.2
20260831023902 77 161 1.0 3.0 0.00 0.00 0.00 80 1006.1
20260831022932 77 96 0.0 1.0 0.00 0.00 0.00 80 1006.2
20260831021933 78 189 2.0 5.0 0.00 0.00 0.00 79 1006.4
20260831020902 78 205 3.0 7.0 0.00 0.00 0.00 78 1006.3
20260831015903 78 200 1.0 4.0 0.00 0.00 0.00 77 1006.4
20260831014902 79 183 4.0 9.0 0.00 0.00 0.00 75 1006.3
20260831013902 80 220 4.0 10.0 0.00 0.00 0.00 74 1006.1
20260831012902 80 119 2.0 5.0 0.00 0.00 0.00 73 1006.2
20260831011902 81 183 2.0 5.0 0.00 0.00 0.00 71 1005.9
20260831010902 82 184 1.0 5.0 0.00 0.00 0.00 71 1005.8
20260831005902 82 198 7.0 14.0 0.00 0.00 0.00 70 1005.8
20260831004902 82 132 1.0 5.0 0.00 0.00 0.00 71 1005.6
20260831003902 83 162 3.0 8.0 0.00 0.00 0.00 70 1005.6
20260831002902 83 164 0.0 0.0 0.00 0.00 0.00 69 1005.2
20260831002002 84 124 2.0 3.0 0.00 0.00 0.00 69 1005.2
20260831000932 84 231 0.0 0.0 0.00 0.00 0.00 69 1005.3
20260830235933 84 135 2.0 6.0 0.00 0.00 0.00 69 1005.2
20260830234902 85 187 4.0 8.0 0.00 0.00 0.00 69 1005.4
20260830233932 85 188 2.0 4.0 0.00 0.00 0.00 71 1005.3
20260830232932 85 216 1.0 2.0 0.00 0.00 0.00 72 1005.2
20260830230902 85 104 3.0 6.0 0.00 0.00 0.00 74 1005.3
20260830225902 85 68 6.0 11.0 0.00 0.00 0.00 74 1005.3
20260830224902 85 76 4.0 8.0 0.00 0.00 0.00 74 1005.2
20260830223902 85 76 4.0 7.0 0.00 0.00 0.00 73 1005.0
20260830222902 85 79 3.0 5.0 0.00 0.00 0.00 74 1005.0
20260830221902 85 73 3.0 7.0 0.00 0.00 0.00 74 1005.0
20260830221002 85 71 5.0 8.0 0.00 0.00 0.00 74 1005.0
20260830215902 85 70 6.0 9.0 0.00 0.00 0.00 73 1005.0
20260830214902 85 99 2.0 6.0 0.00 0.00 0.00 73 1005.1
20260830213902 85 105 0.0 1.0 0.00 0.00 0.00 73 1005.3
20260830212902 85 72 5.0 7.0 0.00 0.00 0.00 73 1005.4
20260830211902 85 100 1.0 5.0 0.00 0.00 0.00 73 1005.5
20260830210902 85 90 1.0 3.0 0.00 0.00 0.00 72 1005.5
20260830205902 85 95 2.0 3.0 0.00 0.00 0.00 72 1005.7
20260830204902 85 109 4.0 7.0 0.00 0.00 0.00 71 1005.8
20260830203932 85 107 5.0 9.0 0.00 0.00 0.00 71 1006.0
20260830202902 86 81 4.0 9.0 0.00 0.00 0.00 70 1006.1
20260830201902 86 67 5.0 8.0 0.00 0.00 0.00 69 1005.9
20260830200902 86 78 5.0 10.0 0.00 0.00 0.00 68 1005.9
20260830195901 87 79 6.0 10.0 0.00 0.00 0.00 68 1005.8
20260830194932 86 59 6.0 9.0 0.00 0.00 0.00 69 1005.8
20260830193932 86 66 10.0 13.0 0.00 0.00 0.00 69 1005.7
20260830192902 86 73 9.0 14.0 0.00 0.00 0.00 71 1005.7
20260830191902 85 68 9.0 14.0 0.00 0.00 0.00 71 1006.0
20260830190902 84 106 5.0 11.0 0.00 0.00 0.00 73 1006.0
20260830185902 83 73 9.0 14.0 0.00 0.00 0.00 76 1006.3
20260830184902 82 63 8.0 11.0 0.00 0.00 0.00 77 1006.5
20260830183902 81 60 12.0 16.0 0.00 0.00 0.00 78 1006.6
20260830182902 80 78 6.0 9.0 0.00 0.00 0.00 80 1006.6
20260830181902 79 67 10.0 16.0 0.00 0.00 0.00 80 1006.8
20260830180902 79 65 3.0 4.0 0.00 0.00 0.00 79 1007.0
20260830175902 79 74 5.0 9.0 0.00 0.00 0.00 80 1007.0
20260830174902 79 79 4.0 7.0 0.00 0.00 0.00 80 1007.2
20260830173902 79 141 0.0 1.0 0.00 0.00 0.00 81 1007.5
20260830172902 79 125 2.0 6.0 0.00 0.00 0.00 81 1007.4
20260830171902 79 104 1.0 2.0 0.00 0.00 0.00 80 1007.3
20260830170902 79 96 3.0 5.0 0.00 0.00 0.00 81 1007.2
20260830165902 78 78 1.0 2.0 0.00 0.00 0.00 81 1007.3
20260830164902 79 73 5.0 7.0 0.00 0.00 0.00 80 1007.2
20260830163902 79 82 4.0 8.0 0.00 0.00 0.00 80 1006.9
20260830162901 79 75 5.0 8.0 0.00 0.00 0.00 80 1006.7
20260830161902 79 65 7.0 10.0 0.00 0.00 0.00 80 1006.7
20260830160902 78 52 2.0 5.0 0.00 0.00 0.00 82 1006.7
20260830155902 78 62 5.0 7.0 0.00 0.00 0.00 83 1006.5
20260830154902 77 77 5.0 9.0 0.00 0.00 0.00 83 1006.4
20260830153902 77 68 4.0 7.0 0.00 0.00 0.00 84 1006.5
20260830152902 76 76 6.0 9.0 0.00 0.00 0.00 86 1006.7
20260830151902 75 67 4.0 8.0 0.00 0.00 0.00 87 1006.4
20260830150902 74 75 6.0 10.0 0.00 0.00 0.00 88 1006.5
20260830145902 74 80 5.0 10.0 0.00 0.00 0.00 89 1006.5
20260830144902 73 73 4.0 8.0 0.00 0.00 0.00 91 1006.4
20260830143902 72 72 6.0 9.0 0.00 0.00 0.00 91 1006.7
20260830142902 72 100 3.0 8.0 0.00 0.00 0.00 92 1006.6
20260830141932 71 72 3.0 6.0 0.00 0.00 0.00 94 1007.1
20260830140903 70 86 1.0 3.0 0.00 0.00 0.00 95 1007.1
20260830135901 70 72 1.0 2.0 0.00 0.00 0.00 95 1007.0
20260830134902 69 69 4.0 5.0 0.00 0.00 0.00 95 1006.9
20260830133902 69 78 2.0 3.0 0.00 0.00 0.00 95 1006.8
20260830132932 68 68 5.0 8.0 0.00 0.00 0.00 95 1006.7
20260830131902 68 87 2.0 6.0 0.00 0.00 0.00 95 1006.8
20260830130902 68 69 4.0 7.0 0.00 0.00 0.00 95 1006.9
20260830125932 68 65 4.0 5.0 0.00 0.00 0.00 95 1006.8
20260830124903 68 59 2.0 3.0 0.00 0.00 0.00 95 1007.2
20260830123931 68 70 3.0 6.0 0.00 0.00 0.00 95 1007.0
20260830122902 68 76 4.0 5.0 0.00 0.00 0.00 95 1006.8
20260830121902 68 66 2.0 3.0 0.00 0.00 0.00 95 1006.7
20260830120902 68 71 1.0 3.0 0.00 0.00 0.00 95 1006.8
20260830115902 68 73 2.0 4.0 0.00 0.00 0.00 95 1006.4
20260830114902 68 72 4.0 5.0 0.00 0.00 0.00 94 1006.2
20260830113932 68 70 3.0 5.0 0.00 0.00 0.00 94 1006.4
20260830112902 68 77 2.0 3.0 0.00 0.00 0.00 94 1006.4
20260830111902 68 79 3.0 4.0 0.00 0.00 0.00 94 1006.4
20260830110902 68 70 2.0 3.0 0.00 0.00 0.00 94 1006.6
20260830105902 68 71 1.0 2.0 0.00 0.00 0.00 94 1006.7
20260830104903 68 62 1.0 3.0 0.00 0.00 0.00 94 1006.7
20260830103932 68 67 2.0 2.0 0.00 0.00 0.00 94 1006.8
20260830102902 68 76 0.0 1.0 0.00 0.00 0.00 94 1006.9
20260830101902 68 79 1.0 2.0 0.00 0.00 0.00 93 1006.7
20260830100902 68 73 2.0 3.0 0.00 0.00 0.00 93 1006.6
20260830095902 68 78 2.0 4.0 0.00 0.00 0.00 93 1006.3
20260830094933 68 65 2.0 3.0 0.00 0.00 0.00 93 1006.2
20260830093902 68 67 3.0 4.0 0.00 0.00 0.00 93 1006.3
20260830092933 68 71 2.0 4.0 0.00 0.00 0.00 93 1006.6
20260830091932 68 85 1.0 3.0 0.00 0.00 0.00 93 1006.6
20260830090902 68 66 3.0 5.0 0.00 0.00 0.00 93 1006.4
20260830085902 68 68 3.0 4.0 0.00 0.00 0.00 93 1006.6
20260830084902 68 81 0.0 1.0 0.00 0.00 0.00 93 1006.7
20260830083902 68 72 1.0 2.0 0.00 0.00 0.00 92 1006.8
20260830082902 69 66 3.0 4.0 0.00 0.00 0.00 92 1006.5
20260830081903 69 69 2.0 4.0 0.00 0.00 0.00 92 1006.4
20260830080902 69 72 3.0 4.0 0.00 0.00 0.00 92 1006.6
20260830075902 69 69 3.0 5.0 0.00 0.00 0.00 92 1006.7
20260830075002 69 72 2.0 3.0 0.00 0.00 0.00 92 1006.9
20260830073902 69 76 5.0 7.0 0.00 0.00 0.00 92 1006.7
20260830072902 69 72 2.0 3.0 0.00 0.00 0.00 91 1007.0
20260830071902 69 66 1.0 2.0 0.00 0.00 0.00 91 1007.1
20260830070902 69 78 1.0 4.0 0.00 0.00 0.00 91 1007.0
20260830065902 69 68 3.0 5.0 0.00 0.00 0.00 91 1006.9
20260830064902 70 100 0.0 1.0 0.00 0.00 0.00 91 1007.0
20260830063902 70 70 3.0 4.0 0.00 0.00 0.00 91 1007.0
20260830062902 70 72 2.0 3.0 0.00 0.00 0.00 91 1007.3
20260830061902 70 83 0.0 0.0 0.00 0.00 0.00 91 1007.4
20260830060933 70 74 0.0 1.0 0.00 0.00 0.00 91 1007.5
20260830055902 70 54 0.0 2.0 0.00 0.00 0.00 91 1007.5
20260830054902 70 67 1.0 2.0 0.00 0.00 0.00 91 1007.5
20260830053902 70 73 2.0 3.0 0.00 0.00 0.00 91 1007.5
20260830052902 70 85 2.0 3.0 0.00 0.00 0.00 90 1007.5
20260830051902 70 80 1.0 3.0 0.00 0.00 0.00 90 1007.5
20260830050932 70 76 1.0 2.0 0.00 0.00 0.00 90 1007.6
20260830045933 70 77 2.0 3.0 0.00 0.00 0.26 90 1007.7
20260830044902 70 83 0.0 1.0 0.00 0.00 0.26 90 1007.8
20260830043902 71 71 0.0 1.0 0.00 0.00 0.26 90 1007.8
20260830042902 71 43 0.0 1.0 0.00 0.00 0.26 89 1008.0
20260830041902 71 72 1.0 3.0 0.00 0.00 0.26 89 1008.0
20260830040902 71 81 0.0 2.0 0.00 0.00 0.26 89 1007.9
20260830040003 71 72 1.0 3.0 0.00 0.00 0.26 89 1008.0
20260830034901 71 72 2.0 4.0 0.00 0.00 0.26 89 1008.1
20260830033903 72 73 2.0 4.0 0.00 0.00 0.26 88 1008.2
20260830031902 72 71 2.0 3.0 0.00 0.00 0.26 88 1008.1
20260830031003 72 74 1.0 2.0 0.00 0.00 0.26 88 1008.1